| time (UTC) | temp F | wind direction | speed knots | gust knots | rain 1hr in | rain 24hr in | rain mn in | humidity % | barometer mb |
| 20260906103049 | 90 | 198 | 1.7 | 7.0 | 0.00 | 0.00 | 0.00 | 45 | 1016.9 |
| 20260906101546 | 90 | 197 | 1.7 | 7.0 | 0.00 | 0.00 | 0.00 | 45 | 1016.9 |
| 20260906100042 | 90 | 197 | 0.0 | 6.1 | 0.00 | 0.00 | 0.00 | 43 | 1016.8 |
| 20260906094545 | 90 | 197 | 0.0 | 6.1 | 0.00 | 0.00 | 0.00 | 42 | 1017.0 |
| 20260906093040 | 89 | 197 | 2.6 | 6.1 | 0.00 | 0.00 | 0.00 | 41 | 1017.2 |
| 20260906091541 | 89 | 197 | 0.0 | 6.1 | 0.00 | 0.00 | 0.00 | 42 | 1017.2 |
| 20260906090049 | 88 | 198 | 0.0 | 5.2 | 0.00 | 0.00 | 0.00 | 43 | 1017.4 |
| 20260906084539 | 87 | 197 | 0.0 | 0.9 | 0.00 | 0.00 | 0.00 | 46 | 1017.3 |
| 20260906083039 | 86 | 198 | 3.5 | 6.1 | 0.00 | 0.00 | 0.00 | 46 | 1017.3 |
| 20260906081522 | 87 | 197 | 3.5 | 7.8 | 0.00 | 0.00 | 0.00 | 46 | 1017.4 |
| 20260906080024 | 88 | 197 | 0.0 | 6.1 | 0.00 | 0.00 | 0.00 | 41 | 1017.4 |
| 20260906074516 | 89 | 197 | 0.0 | 0.9 | 0.00 | 0.00 | 0.00 | 33 | 1017.3 |
| 20260906073016 | 90 | 197 | 0.0 | 0.9 | 0.00 | 0.00 | 0.00 | 32 | 1017.2 |
| 20260906071519 | 88 | 197 | 0.0 | 0.9 | 0.00 | 0.00 | 0.00 | 33 | 1017.1 |
| 20260906070008 | 87 | 198 | 0.0 | 0.9 | 0.00 | 0.00 | 0.00 | 34 | 1017.0 |
| 20260906064506 | 86 | 197 | 0.0 | 0.9 | 0.00 | 0.00 | 0.00 | 35 | 1016.9 |
| 20260906063002 | 85 | 197 | 0.0 | 0.9 | 0.00 | 0.00 | 0.00 | 37 | 1016.7 |
| 20260906061549 | 84 | 197 | 0.0 | 0.9 | 0.00 | 0.00 | 0.00 | 37 | 1016.6 |
| 20260906060053 | 82 | 197 | 0.0 | 0.9 | 0.00 | 0.00 | 0.00 | 38 | 1016.5 |
| 20260906054543 | 82 | 197 | 0.0 | 0.9 | 0.00 | 0.00 | 0.00 | 38 | 1016.4 |
| 20260906053035 | 81 | 197 | 0.0 | 0.0 | 0.00 | 0.00 | 0.00 | 39 | 1016.4 |
| 20260906051535 | 79 | 197 | 0.0 | 0.9 | 0.00 | 0.00 | 0.00 | 40 | 1016.3 |
| 20260906050026 | 77 | 198 | 0.0 | 0.9 | 0.00 | 0.00 | 0.00 | 40 | 1016.3 |
| 20260906044524 | 77 | 197 | 0.0 | 0.9 | 0.00 | 0.00 | 0.00 | 39 | 1016.2 |
| 20260906043030 | 0 | 0.0 | 0.0 | 0.00 | 0.00 | 0.00 | 1016.2 | ||
| 20260906041505 | 0 | 0.0 | 0.0 | 0.00 | 0.00 | 0.00 | 1015.8 | ||
| 20260906040002 | 0 | 0.0 | 0.0 | 0.00 | 0.00 | 0.00 | 1015.8 | ||
| 20260906034604 | 0 | 0.0 | 0.0 | 0.00 | 0.00 | 0.00 | 1015.7 | ||
| 20260906033053 | 0 | 0.0 | 0.0 | 0.00 | 0.00 | 0.00 | 1015.7 | ||
| 20260906031550 | 0 | 0.0 | 0.0 | 0.00 | 0.00 | 0.00 | 1015.6 | ||
| 20260906030045 | 0 | 0.0 | 0.0 | 0.00 | 0.00 | 0.00 | 1015.5 | ||
| 20260906024540 | 0 | 0.0 | 0.0 | 0.00 | 0.00 | 0.00 | 1015.4 | ||
| 20260906023035 | 0 | 0.0 | 0.0 | 0.00 | 0.00 | 0.00 | 1015.3 | ||
| 20260906021528 | 0 | 0.0 | 0.0 | 0.00 | 0.00 | 0.00 | 1015.4 | ||
| 20260906020020 | 0 | 0.0 | 0.0 | 0.00 | 0.00 | 0.00 | 1015.3 | ||
| 20260906014516 | 0 | 0.0 | 0.0 | 0.00 | 0.00 | 0.00 | 1015.3 | ||
| 20260906013014 | 76 | 197 | 0.0 | 0.0 | 0.00 | 0.00 | 0.00 | 40 | 1015.4 |
| 20260906011510 | 77 | 197 | 0.0 | 0.0 | 0.00 | 0.00 | 0.00 | 40 | 1015.5 |
| 20260906010009 | 77 | 197 | 0.0 | 0.0 | 0.00 | 0.00 | 0.00 | 40 | 1015.7 |
| 20260906004504 | 77 | 198 | 0.0 | 0.0 | 0.00 | 0.00 | 0.00 | 39 | 1015.6 |
| 20260906003005 | 77 | 197 | 0.0 | 0.9 | 0.00 | 0.00 | 0.00 | 39 | 1015.7 |
| 20260906001602 | 77 | 197 | 0.0 | 0.9 | 0.00 | 0.00 | 0.00 | 40 | 1015.6 |
| 20260906000053 | 78 | 197 | 0.0 | 0.0 | 0.00 | 0.00 | 0.00 | 39 | 1015.7 |
| 20260905234552 | 78 | 197 | 0.0 | 0.0 | 0.00 | 0.00 | 0.00 | 39 | 1015.7 |
| 20260905233052 | 78 | 197 | 0.0 | 0.9 | 0.00 | 0.00 | 0.00 | 38 | 1015.9 |
| 20260905231555 | 78 | 197 | 0.0 | 0.9 | 0.00 | 0.00 | 0.00 | 38 | 1016.0 |
| 20260905230050 | 78 | 198 | 0.0 | 0.0 | 0.00 | 0.00 | 0.00 | 37 | 1016.2 |
| 20260905224549 | 78 | 198 | 0.0 | 0.0 | 0.00 | 0.00 | 0.00 | 37 | 1016.3 |
| 20260905223054 | 78 | 197 | 0.0 | 0.0 | 0.00 | 0.00 | 0.00 | 37 | 1016.3 |
| 20260905221542 | 79 | 197 | 0.0 | 0.0 | 0.00 | 0.00 | 0.00 | 37 | 1016.3 |
| 20260905220037 | 79 | 197 | 0.0 | 0.9 | 0.00 | 0.00 | 0.00 | 36 | 1016.2 |
| 20260905214543 | 79 | 197 | 0.0 | 0.9 | 0.00 | 0.00 | 0.00 | 38 | 1016.2 |
| 20260905213036 | 79 | 197 | 0.0 | 0.9 | 0.00 | 0.00 | 0.00 | 38 | 1016.4 |
| 20260905211535 | 80 | 198 | 0.0 | 0.0 | 0.00 | 0.00 | 0.00 | 39 | 1016.4 |
| 20260905210045 | 82 | 197 | 0.0 | 0.0 | 0.00 | 0.00 | 0.00 | 36 | 1016.4 |
| 20260905204535 | 81 | 197 | 0.0 | 0.0 | 0.00 | 0.00 | 0.00 | 38 | 1016.5 |
| 20260905203034 | 81 | 197 | 0.0 | 0.0 | 0.00 | 0.00 | 0.00 | 35 | 1016.4 |
| 20260905201522 | 82 | 198 | 0.0 | 0.9 | 0.00 | 0.00 | 0.00 | 34 | 1016.2 |
| 20260905200016 | 82 | 197 | 0.0 | 2.6 | 0.00 | 0.00 | 0.00 | 33 | 1016.2 |
| 20260905194503 | 82 | 198 | 1.7 | 5.2 | 0.00 | 0.00 | 0.00 | 34 | 1016.2 |
| 20260905193013 | 83 | 197 | 0.0 | 1.7 | 0.00 | 0.00 | 0.00 | 34 | 1016.3 |
| 20260905191502 | 83 | 197 | 0.0 | 6.1 | 0.00 | 0.00 | 0.00 | 34 | 1016.3 |
| 20260905190002 | 83 | 198 | 0.0 | 5.2 | 0.00 | 0.00 | 0.00 | 34 | 1016.4 |
| 20260905184502 | 83 | 198 | 2.6 | 8.7 | 0.00 | 0.00 | 0.00 | 34 | 1016.1 |
| 20260905183100 | 83 | 197 | 2.6 | 8.7 | 0.00 | 0.00 | 0.00 | 35 | 1016.1 |
| 20260905183001 | 83 | 197 | 1.7 | 8.7 | 0.00 | 0.00 | 0.00 | 35 | 1016.1 |
| 20260905181600 | 83 | 198 | 1.7 | 9.6 | 0.00 | 0.00 | 0.00 | 35 | 1015.8 |
| 20260905180059 | 83 | 198 | 0.0 | 5.2 | 0.00 | 0.00 | 0.00 | 35 | 1015.8 |
| 20260905174541 | 83 | 198 | 2.6 | 7.8 | 0.00 | 0.00 | 0.00 | 36 | 1015.8 |
| 20260905173049 | 84 | 198 | 0.9 | 6.1 | 0.00 | 0.00 | 0.00 | 36 | 1015.8 |
| 20260905171523 | 84 | 198 | 2.6 | 6.1 | 0.00 | 0.00 | 0.00 | 36 | 1015.5 |
| 20260905170023 | 85 | 198 | 1.7 | 7.0 | 0.00 | 0.00 | 0.00 | 35 | 1015.4 |
| 20260905164513 | 86 | 198 | 2.6 | 8.7 | 0.00 | 0.00 | 0.00 | 34 | 1015.4 |
| 20260905163011 | 87 | 198 | 2.6 | 7.8 | 0.00 | 0.00 | 0.00 | 33 | 1015.5 |
| 20260905161509 | 88 | 198 | 2.6 | 7.8 | 0.00 | 0.00 | 0.00 | 31 | 1015.5 |
| 20260905160010 | 89 | 200 | 2.6 | 8.7 | 0.00 | 0.00 | 0.00 | 30 | 1015.5 |
| 20260905154508 | 89 | 200 | 1.7 | 7.0 | 0.00 | 0.00 | 0.00 | 30 | 1015.7 |
| 20260905153014 | 89 | 200 | 1.7 | 11.3 | 0.00 | 0.00 | 0.00 | 31 | 1015.7 |
| 20260905151507 | 90 | 197 | 0.9 | 7.8 | 0.00 | 0.00 | 0.00 | 31 | 1015.6 |
| 20260905150007 | 91 | 198 | 2.6 | 9.6 | 0.00 | 0.00 | 0.00 | 30 | 1015.6 |
| 20260905144605 | 91 | 200 | 0.0 | 6.1 | 0.00 | 0.00 | 0.00 | 31 | 1015.4 |
| 20260905143052 | 91 | 201 | 2.6 | 11.3 | 0.00 | 0.00 | 0.00 | 32 | 1015.4 |
| 20260905141550 | 91 | 195 | 1.7 | 10.4 | 0.00 | 0.00 | 0.00 | 32 | 1015.4 |
| 20260905140048 | 91 | 195 | 2.6 | 9.6 | 0.00 | 0.00 | 0.00 | 32 | 1015.4 |
| 20260905134545 | 91 | 195 | 3.5 | 11.3 | 0.00 | 0.00 | 0.00 | 32 | 1015.4 |
| 20260905133042 | 91 | 198 | 4.3 | 10.4 | 0.00 | 0.00 | 0.00 | 32 | 1015.6 |
| 20260905131552 | 91 | 198 | 1.7 | 8.7 | 0.00 | 0.00 | 0.00 | 32 | 1015.6 |
| 20260905130040 | 90 | 198 | 2.6 | 9.6 | 0.00 | 0.00 | 0.00 | 32 | 1015.6 |
| 20260905124639 | 90 | 198 | 3.5 | 10.4 | 0.00 | 0.00 | 0.00 | 32 | 1015.7 |
| 20260905123051 | 91 | 198 | 4.3 | 11.3 | 0.00 | 0.00 | 0.00 | 32 | 1015.9 |
| 20260905121520 | 90 | 198 | 4.3 | 10.4 | 0.00 | 0.00 | 0.00 | 33 | 1016.0 |
| 20260905120002 | 90 | 198 | 3.5 | 11.3 | 0.00 | 0.00 | 0.00 | 33 | 1016.1 |
| 20260905114500 | 90 | 197 | 3.5 | 14.8 | 0.00 | 0.00 | 0.00 | 34 | 1016.2 |
| 20260905113048 | 90 | 198 | 5.2 | 10.4 | 0.00 | 0.00 | 0.00 | 33 | 1016.2 |
| 20260905111555 | 90 | 198 | 4.3 | 13.0 | 0.00 | 0.00 | 0.00 | 33 | 1016.3 |
| 20260905110046 | 89 | 197 | 4.3 | 8.7 | 0.00 | 0.00 | 0.00 | 33 | 1016.4 |
| 20260905104545 | 90 | 191 | 2.6 | 13.9 | 0.00 | 0.00 | 0.00 | 32 | 1016.5 |